Вернуться в каталог

RITE TARGET 1

АктивенНаукаSSO
NORAD 28454·PAYLOAD·🇯🇵 Japan

Запущен Dec 14, 2002 с Tanegashima Space Center

Loading…

Ближайшие Пролёты (ближайшие 24 часа)

TLE

СвежийSource: Space-Track

Эпоха: Sep 14, 2026, 03:57 UTC

1 28454U 02056F   26257.16468549  .00000464  00000-0  17145-3 0  9996
2 28454  98.7623 234.2742 0008562 310.9702  49.0742 14.37196541693439

Отслеживайте RITE TARGET 1 в реальном времени с AllMySat

Download on the App Store